Find Starlink 37278

NORAD ID: 68734 Int'l Des: 2026-082 Owner: SPXS Country: US Constellation: starlink operational
LEOCIRCULARRETROGRADE

Live Position

Loading 3D Globe...

About Starlink 37278

Description loading...

Upcoming Passes

Passes for default location (London). Set your location on the main map for personalized predictions.

Altitude History

Loading altitude history...

Two-Line Element Set

1 68734C 26082F 26105.46368056 .00374010 00000+0 43825-3 0 1056
2 68734 97.2881 326.8910 0010788 271.2754 14.2453 16.08386633 10
Epoch: Apr 15, 2026 • Age: 14 hours

Current Status

Altitude 253.1 km
Velocity 7.76 km/s
Sub-Earth Point -1.81°S, 81.32°W
Launch Date Apr 15, 2026
Age N/A
Type internet

Technical Details

Classification Payload
Mass 575.00 kg
Dry Mass 530.00 kg
Total Mass 575.00 kg
Length 0.30 m
Diameter 4.10 m
Span 29.00 m
Shape Box + pan
Manufacturer SPXS
Bus Type Starlink V2MO
Phase Status In Orbit
Owner/State SPXS/US

Most Searched